Notices

What's New in latest Release from April 7th, 2021:

- Updated Glossary, including Speed of Maximum Gust, and Total Hourly Precipitation

- Updated national and regional climate services offices contacts and prices information

- Addition of station inventory lists for 1981-2010, 1971-2000, and 1961-1990 Normals.

If you haven't already, please take our survey and provide feedback about our website: https://eccc.sondage-survey.ca/f/LanguageSelection.aspx?s=442ca660-fcf1-47c0-95a9-59707d6fd709

Hourly Data Report for April 16, 2016

MIRAMICHI RCS
NEW BRUNSWICK

47°00'34.000" N
65°27'54.000" W
33.00 m
8100989
71744
ACQ

Download Data

Hourly Data (April 2016)
Hourly Data Report for April 16, 2016
TIME
LST
Temp Definition
°C
Dew Point Definition
°C
Rel Hum Definition
%
Precip. Amount Definition
mm

Wind Dir Definition
10's deg

Wind Spd Definition
km/h
Visibility Definition
km
Stn Press Definition
kPa
Hmdx Definition


Wind Chill Definition


Weather Definition


00:00 -1.3 -3.4 86 0.0 3 5   103.09   -3 LegendNANA
01:00 -1.2 -2.9 88 0.0 3 10   103.08   -5 LegendNANA
02:00 -1.2 -2.9 88 0.0 2 8   103.11   -4 LegendNANA
03:00 -1.2 -2.7 90 0.0 4 12   103.14   -5 LegendNANA
04:00 -1.7 -3.2 90 0.0 4 13   103.17   -6 LegendNANA
05:00 -1.6 -3.1 89 0.0 4 13   103.20   -6 LegendNANA
06:00 -1.4 -2.9 90 0.0 4 10   103.24   -5 LegendNANA
07:00 -1.0 -2.7 88 0.0 4 14   103.28   -5 LegendNANA
08:00 0.0 -2.5 83 0.0 5 15   103.34   -4 LegendNANA
09:00 1.9 -2.2 74 0.0 8 16   103.34     LegendNANA
10:00 2.7 -2.2 70 0.0 7 18   103.35     LegendNANA
11:00 3.8 -1.6 68 0.0 8 17   103.33     LegendNANA
12:00 5.2 -1.6 62 0.0 6 14   103.28     LegendNANA
13:00 6.2 -1.8 57 0.0 7 18   103.22     LegendNANA
14:00 7.2 -5.8 39 0.0 7 23   103.21     LegendNANA
15:00 6.7 -8.2 34 0.0 7 25   103.15     LegendNANA
16:00 6.1 -9.3 32 0.0 7 21   103.12     LegendNANA
17:00 5.0 -7.4 40 0.0 8 20   103.10     LegendNANA
18:00 4.1 -6.0 48 0.0 7 13   103.08     LegendNANA
19:00 2.2 -7.4 49 0.0 5 10   103.04     LegendNANA
20:00 -0.2 -3.0 81 0.0 5 9   103.05   -3 LegendNANA
21:00 -1.1 -3.6 83 0.0 6 4   103.03   -2 LegendNANA
22:00 -1.6 -4.0 83 0.0 7 3   103.00   -3 LegendNANA
23:00 -2.5 -4.4 87 0.0 10 3   102.95   -4 LegendNANA

Notes on Data Quality.

Legend

  • E = Estimated
  • M = Missing
  • NA = Not Available*
  • [empty] = Indicates an unobserved value
Date modified: